This is the latest recevied weather packets stored in our database for station/object KC9NPJ-13. If no packets are shown the sender has not sent any weather packets the latest 1 day(s).
| Time | Temp. | Humidity | Pressure | Rain* | Wind** | Luminosity | Snow |
|---|---|---|---|---|---|---|---|
| 1778032739 | 8.33° C | 95% | 1009.6 hPa | 9.4 mm | - | - | - |
| 1778032439 | 8.33° C | 95% | 1009.8 hPa | 9.14 mm | - | - | - |
| 1778032139 | 8.33° C | 95% | 1010.4 hPa | 8.89 mm | - | - | - |
| 1778031839 | 8.33° C | 95% | 1010.5 hPa | 7.37 mm | - | - | - |
| 1778031539 | 8.33° C | 95% | 1010.7 hPa | 6.6 mm | - | - | - |
| 1778031239 | 8.33° C | 95% | 1010.4 hPa | 6.35 mm | - | - | - |
| 1778030939 | 8.33° C | 95% | 1010.8 hPa | 5.33 mm | - | - | - |
| 1778030639 | 8.33° C | 94% | 1010.2 hPa | 4.32 mm | - | - | - |
| 1778030339 | 8.33° C | 94% | 1009.9 hPa | 3.3 mm | - | - | - |
| 1778030039 | 8.33° C | 94% | 1009.9 hPa | 2.79 mm | - | - | - |
| 1778029739 | 8.33° C | 94% | 1010 hPa | 2.03 mm | - | - | - |
| 1778029439 | 8.33° C | 94% | 1009.9 hPa | 1.02 mm | - | - | - |
| 1778029139 | 8.33° C | 94% | 1010.5 hPa | 0.25 mm | - | - | - |
| 1778028839 | 8.33° C | 94% | 1010.3 hPa | 0.25 mm | - | - | - |
| 1778028539 | 8.33° C | 94% | 1009.8 hPa | 0 mm | - | - | - |
| 1778028239 | 8.33° C | 94% | 1009.5 hPa | 0 mm | - | - | - |
| 1778027939 | 8.89° C | 94% | 1009.3 hPa | 0 mm | - | - | - |
| 1778027639 | 8.89° C | 94% | 1009.6 hPa | 0 mm | - | - | - |
| 1778027339 | 8.89° C | 94% | 1009.5 hPa | 0 mm | - | - | - |
| 1778027039 | 8.89° C | 94% | 1009.3 hPa | 0 mm | - | - | - |
| 1778026439 | 8.89° C | 94% | 1009.5 hPa | 0 mm | - | - | - |
* Rain latest hour (hover to see other rain measurements)
** Current wind speed in m/s (hover to see current wind gust speed)